Weather History for Alpena, MI

Change the Weather History Date:

Saturday, March 15, 2014

  Actual Average Record
Temperature  
Mean Temperature 21 °F 28 °F  
Max Temperature 33 °F 38 °F 76 °F (1990)
Min Temperature 8 °F 19 °F -6 °F (1993)
Degree Days  
Heating Degree Days 44 37  
Month to date heating degree days 718 590  
Since 1 July heating degree days 7207 6322  
Cooling Degree Days 0 0  
Month to date cooling degree days 0 0  
Year to date cooling degree days 0 0  
Moisture  
Dew Point 14 °F    
Average Humidity 73    
Maximum Humidity 89    
Minimum Humidity 56    
Precipitation  
Precipitation T in 0.06 in 0.76 in (1959)
Month to date precipitation 0.27 0.86  
Year to date precipitation 2.80 3.84  
Snow  
Snow T in 0.40 in 4.20 in (1943)
Month to date snowfall 1.9 7.0  
Since 1 July snowfall 57.4 73.1  
Snow Depth 13.00 in    
Sea Level Pressure  
Sea Level Pressure 29.96 in    
Wind  
Wind Speed 13 mph (NW)    
Max Wind Speed 25 mph    
Max Gust Speed 34 mph    
Visibility 10 miles    
Events Snow    
T = Trace of Precipitation, MM = Missing Value Source: NWS Daily Summary

Daily Weather History Graph

Daily Weather History Graph

Search for Another Location

Airport:

Trip Planner

Search our weather history database for the weather conditions in past years. The results will help you decide how hot, cold, wet, or windy it might be!

Date:

Astronomy

Mar. 15, 2014 Rise Set
Actual Time 7:46 AM EDT 7:40 PM EDT
Civil Twilight 7:17 AM EDT 8:09 PM EDT
Nautical Twilight 6:43 AM EDT 8:43 PM EDT
Astronomical Twilight 6:08 AM EDT 9:18 PM EDT
Moon 6:58 PM EDT (3/15) 6:59 AM EDT (3/15)
Length of Visible Light 12h 52m
Length of Day
11h 53m
Waxing Gibbous, 99% of the Moon is Illuminated
Mar 15
Waxing Gibbous
Mar 16
Full
Mar 23
Last Quarter
Mar 30
New
Apr 7
First Quarter

Hourly Weather History & Observations

Time (EDT) Temp. Windchill Dew Point Humidity Pressure Visibility Wind Dir Wind Speed Gust Speed Precip Events Conditions
12:10 AM 33.1 °F 26.1 °F 30.9 °F 92% 29.56 in 10.0 mi West 8.1 mph - 0.00 in   Overcast
12:54 AM 33.1 °F 26.9 °F 30.9 °F 92% 29.59 in 10.0 mi WNW 6.9 mph - 0.00 in   Overcast
1:54 AM 33.1 °F 26.1 °F 30.9 °F 92% 29.61 in 8.0 mi West 8.1 mph - 0.00 in   Overcast
2:40 AM 33.1 °F 25.5 °F 30.0 °F 89% 29.61 in 10.0 mi WNW 9.2 mph - 0.00 in   Overcast
2:54 AM 33.1 °F 26.1 °F 30.0 °F 89% 29.63 in 10.0 mi WNW 8.1 mph 17.3 mph 0.00 in   Overcast
3:14 AM 32.0 °F 22.5 °F 28.0 °F 85% 29.63 in 9.0 mi WNW 12.7 mph 20.7 mph 0.00 in   Overcast
3:37 AM 30.9 °F 20.7 °F 26.1 °F 82% 29.64 in 10.0 mi WNW 13.8 mph 20.7 mph 0.00 in   Overcast
3:54 AM 30.0 °F 20.5 °F 26.1 °F 85% 29.66 in 10.0 mi WNW 11.5 mph 23.0 mph 0.00 in   Overcast
4:02 AM 30.0 °F 20.5 °F 25.0 °F 82% 29.64 in 10.0 mi WNW 11.5 mph 21.9 mph N/A   Overcast
4:54 AM 28.9 °F 19.8 °F 24.1 °F 82% 29.69 in 9.0 mi WNW 10.4 mph 25.3 mph N/A   Overcast
5:54 AM 28.0 °F 18.1 °F 21.9 °F 78% 29.74 in 10.0 mi WNW 11.5 mph 25.3 mph 0.00 in   Overcast
6:54 AM 26.1 °F 14.5 °F 19.9 °F 78% 29.79 in 10.0 mi WNW 13.8 mph 25.3 mph N/A   Overcast
7:54 AM 23.0 °F 10.6 °F 16.0 °F 74% 29.86 in 10.0 mi WNW 13.8 mph 28.8 mph N/A   Mostly Cloudy
8:29 AM 21.0 °F 8.1 °F 12.9 °F 71% 29.86 in 10.0 mi WNW 13.8 mph 28.8 mph N/A   Scattered Clouds
8:54 AM 21.0 °F 6.6 °F 12.9 °F 71% 29.91 in 10.0 mi NW 17.3 mph 32.2 mph N/A   Partly Cloudy
9:54 AM 19.9 °F 5.2 °F 10.0 °F 65% 29.96 in 10.0 mi NW 17.3 mph 32.2 mph N/A   Partly Cloudy
10:46 AM 19.9 °F 5.7 °F 9.0 °F 62% 29.96 in 10.0 mi NW 16.1 mph 24.2 mph N/A   Mostly Cloudy
10:54 AM 21.0 °F 4.3 °F 10.0 °F 63% 29.99 in 10.0 mi NNW 24.2 mph 34.5 mph N/A   Mostly Cloudy
11:03 AM 19.9 °F 3.9 °F 9.0 °F 62% 29.97 in 10.0 mi NNW 20.7 mph 28.8 mph N/A   Scattered Clouds
11:13 AM 19.9 °F 6.7 °F 9.0 °F 62% 29.97 in 10.0 mi NW 13.8 mph 21.9 mph N/A   Mostly Cloudy
11:54 AM 21.0 °F 5.7 °F 10.0 °F 63% 30.03 in 10.0 mi NNW 19.6 mph 23.0 mph N/A   Mostly Cloudy
12:38 PM 21.0 °F 9.3 °F 9.0 °F 60% 30.01 in 10.0 mi NW 11.5 mph 24.2 mph N/A   Mostly Cloudy
12:54 PM 21.0 °F 9.9 °F 9.0 °F 60% 30.06 in 10.0 mi NW 10.4 mph 24.2 mph N/A   Overcast
1:54 PM 21.0 °F 8.1 °F 9.0 °F 60% 30.08 in 10.0 mi WNW 13.8 mph 23.0 mph 0.00 in   Overcast
2:54 PM 21.0 °F 8.1 °F 10.9 °F 65% 30.11 in 6.0 mi NW 13.8 mph - 0.00 in Snow Light Snow
3:54 PM 21.9 °F 10.4 °F 10.0 °F 60% 30.14 in 9.0 mi WNW 11.5 mph 20.7 mph 0.00 in   Overcast
4:54 PM 19.9 °F 6.2 °F 7.0 °F 57% 30.16 in 10.0 mi NW 15.0 mph 26.5 mph 0.00 in   Scattered Clouds
5:54 PM 19.9 °F 6.2 °F 6.1 °F 55% 30.19 in 10.0 mi NW 15.0 mph 24.2 mph N/A   Overcast
6:54 PM 19.0 °F 7.5 °F 6.1 °F 57% 30.22 in 10.0 mi NW 10.4 mph 20.7 mph N/A   Overcast
7:54 PM 17.1 °F 2.0 °F 6.1 °F 62% 30.27 in 10.0 mi NW 16.1 mph - 0.00 in   Overcast
8:54 PM 15.1 °F 0.5 °F 6.1 °F 68% 30.30 in 10.0 mi NW 13.8 mph 21.9 mph 0.00 in   Scattered Clouds
9:54 PM 12.9 °F -3.4 °F 1.0 °F 59% 30.34 in 10.0 mi NW 16.1 mph 21.9 mph N/A   Overcast
10:54 PM 12.0 °F -0.4 °F 1.9 °F 64% 30.36 in 10.0 mi NW 9.2 mph 20.7 mph N/A   Overcast
11:42 PM 10.0 °F -3.7 °F 1.0 °F 67% 30.33 in 10.0 mi WNW 10.4 mph 23.0 mph 0.00 in   Overcast
11:54 PM 9.0 °F -4.2 °F 1.0 °F 70% 30.38 in 7.0 mi NW 9.2 mph 23.0 mph 0.00 in   Overcast